AJAX45 YPAD-YPAD

Flight info

Callsign AJAX45
Flight time 0h 43m
Altitude 18000
Route DCT AD HAWKY MARGO AD
Aircraft B350/L-SDFGHRZ/EB1

Departure

Time 2026-05-07 11:05
Airport Adelaide International Airport (YPAD)

Arrival

Time 2026-05-07 11:48
Airport Adelaide International Airport (YPAD)
Time Latitude Longitude Altitude Speed Heading
2026-05-07 10:42 -33.93358 151.18831 25 ft 0 kts 190°
2026-05-07 10:46 -34.95022 138.52229 28 ft 0 kts 51°
2026-05-07 10:55 -34.95020 138.52232 28 ft 1 kts 69°
2026-05-07 10:55 -34.95024 138.52260 28 ft 4 kts 128°
2026-05-07 10:56 -34.95050 138.52257 28 ft 5 kts 217°
2026-05-07 10:56 -34.95084 138.52266 28 ft 6 kts 131°
2026-05-07 10:56 -34.95110 138.52309 28 ft 6 kts 129°
2026-05-07 10:56 -34.95125 138.52359 28 ft 8 kts 56°
2026-05-07 10:57 -34.95063 138.52422 28 ft 12 kts 37°
2026-05-07 10:57 -34.95007 138.52475 28 ft 9 kts 37°
2026-05-07 10:57 -34.94947 138.52531 28 ft 12 kts 37°
2026-05-07 10:57 -34.94873 138.52600 28 ft 14 kts 37°
2026-05-07 10:58 -34.94788 138.52681 28 ft 16 kts 37°
2026-05-07 10:58 -34.94720 138.52745 28 ft 12 kts 37°
2026-05-07 10:58 -34.94647 138.52814 28 ft 14 kts 37°
2026-05-07 10:58 -34.94573 138.52881 28 ft 13 kts 36°
2026-05-07 10:59 -34.94493 138.52957 28 ft 15 kts 39°
2026-05-07 10:59 -34.94441 138.53061 29 ft 14 kts 94°
2026-05-07 10:59 -34.94484 138.53166 31 ft 12 kts 123°
2026-05-07 10:59 -34.94519 138.53261 31 ft 13 kts 95°
2026-05-07 11:00 -34.94487 138.53371 31 ft 14 kts 52°
2026-05-07 11:00 -34.94417 138.53473 31 ft 16 kts 49°
2026-05-07 11:00 -34.94342 138.53581 31 ft 17 kts 49°
2026-05-07 11:00 -34.94265 138.53691 33 ft 17 kts 50°
2026-05-07 11:01 -34.94187 138.53806 32 ft 18 kts 48°
2026-05-07 11:01 -34.94105 138.53926 34 ft 17 kts 50°
2026-05-07 11:01 -34.94027 138.54040 34 ft 17 kts 50°
2026-05-07 11:01 -34.93960 138.54140 35 ft 10 kts 54°
2026-05-07 11:02 -34.93962 138.54207 35 ft 8 kts 134°
2026-05-07 11:02 -34.93988 138.54233 35 ft 0 kts 141°
2026-05-07 11:02 -34.93988 138.54234 35 ft 1 kts 141°
2026-05-07 11:03 -34.94005 138.54251 34 ft 5 kts 140°
2026-05-07 11:03 -34.94038 138.54285 34 ft 7 kts 139°
2026-05-07 11:03 -34.94078 138.54303 34 ft 4 kts 217°
2026-05-07 11:03 -34.94085 138.54294 34 ft 0 kts 230°
2026-05-07 11:04 -34.94086 138.54292 34 ft 3 kts 229°
2026-05-07 11:04 -34.94234 138.54079 34 ft 77 kts 229°
2026-05-07 11:04 -34.94708 138.53381 212 ft 123 kts 229°
2026-05-07 11:05 -34.95289 138.52527 629 ft 147 kts 230°
2026-05-07 11:05 -34.95949 138.51483 1128 ft 161 kts 236°
2026-05-07 11:05 -34.96291 138.50211 1747 ft 166 kts 266°
2026-05-07 11:05 -34.95925 138.48854 2316 ft 177 kts 304°
2026-05-07 11:06 -34.94951 138.47954 2947 ft 180 kts 326°
2026-05-07 11:06 -34.93847 138.47267 3596 ft 181 kts 332°
2026-05-07 11:06 -34.92705 138.46649 4206 ft 183 kts 334°
2026-05-07 11:06 -34.91579 138.45926 4724 ft 185 kts 317°
2026-05-07 11:07 -34.90686 138.44846 5383 ft 183 kts 307°
2026-05-07 11:07 -34.89909 138.43639 6034 ft 182 kts 303°
2026-05-07 11:07 -34.89183 138.42387 6635 ft 183 kts 301°
2026-05-07 11:07 -34.88467 138.41104 7209 ft 185 kts 301°
2026-05-07 11:08 -34.87758 138.39819 7760 ft 187 kts 301°
2026-05-07 11:08 -34.87035 138.38509 8336 ft 189 kts 301°
2026-05-07 11:08 -34.86307 138.37186 8945 ft 190 kts 301°
2026-05-07 11:08 -34.85567 138.35844 9530 ft 191 kts 301°
2026-05-07 11:09 -34.84827 138.34503 10081 ft 193 kts 301°
2026-05-07 11:09 -34.84081 138.33153 10612 ft 195 kts 302°
2026-05-07 11:09 -34.83325 138.31787 11128 ft 197 kts 302°
2026-05-07 11:09 -34.82558 138.30399 11681 ft 199 kts 302°
2026-05-07 11:10 -34.81785 138.29004 12247 ft 200 kts 302°
2026-05-07 11:10 -34.81020 138.27622 12774 ft 201 kts 302°
2026-05-07 11:10 -34.80234 138.26202 13285 ft 203 kts 302°
2026-05-07 11:10 -34.79446 138.24780 13776 ft 205 kts 302°
2026-05-07 11:11 -34.78654 138.23349 14250 ft 206 kts 302°
2026-05-07 11:11 -34.77852 138.21902 14710 ft 208 kts 302°
2026-05-07 11:11 -34.77044 138.20447 15154 ft 209 kts 302°
2026-05-07 11:11 -34.76228 138.18976 15585 ft 211 kts 302°
2026-05-07 11:12 -34.75405 138.17491 16002 ft 212 kts 302°
2026-05-07 11:12 -34.74583 138.16013 16402 ft 214 kts 302°
2026-05-07 11:12 -34.73743 138.14499 16795 ft 215 kts 302°
2026-05-07 11:12 -34.72905 138.12990 17172 ft 216 kts 302°
2026-05-07 11:13 -34.72069 138.11487 17535 ft 218 kts 302°
2026-05-07 11:13 -34.71224 138.09969 17889 ft 219 kts 302°
2026-05-07 11:13 -34.70352 138.08400 18026 ft 231 kts 302°
2026-05-07 11:13 -34.69422 138.06728 18019 ft 245 kts 302°
2026-05-07 11:14 -34.68453 138.04987 18016 ft 256 kts 302°
2026-05-07 11:14 -34.67441 138.03175 18001 ft 259 kts 302°
2026-05-07 11:14 -34.66422 138.01350 17999 ft 260 kts 302°
2026-05-07 11:14 -34.65409 137.99536 17999 ft 260 kts 302°
2026-05-07 11:15 -34.64397 137.97723 17999 ft 260 kts 302°
2026-05-07 11:15 -34.63396 137.95927 17999 ft 260 kts 302°
2026-05-07 11:15 -34.62479 137.94045 17990 ft 260 kts 301°
2026-05-07 11:15 -34.61496 137.92192 18007 ft 260 kts 301°
2026-05-07 11:16 -34.60526 137.90353 17998 ft 260 kts 301°
2026-05-07 11:16 -34.59529 137.88513 17989 ft 261 kts 307°
2026-05-07 11:16 -34.58254 137.86961 18015 ft 260 kts 312°
2026-05-07 11:16 -34.56974 137.85426 17989 ft 262 kts 316°
2026-05-07 11:17 -34.55989 137.83606 18003 ft 257 kts 291°
2026-05-07 11:17 -34.55104 137.81723 18012 ft 258 kts 300°
2026-05-07 11:17 -34.54264 137.79800 17974 ft 258 kts 283°
2026-05-07 11:17 -34.54244 137.77702 18007 ft 253 kts 254°
2026-05-07 11:18 -34.55078 137.75868 18001 ft 251 kts 225°
2026-05-07 11:18 -34.56447 137.74542 18024 ft 250 kts 217°
2026-05-07 11:18 -34.57839 137.73265 17998 ft 252 kts 217°
2026-05-07 11:18 -34.59237 137.71982 18000 ft 253 kts 217°
2026-05-07 11:19 -34.60639 137.70695 17999 ft 253 kts 217°
2026-05-07 11:19 -34.62043 137.69406 17999 ft 253 kts 217°
2026-05-07 11:19 -34.63450 137.68115 17999 ft 254 kts 217°
2026-05-07 11:19 -34.64838 137.66840 17999 ft 254 kts 217°
2026-05-07 11:20 -34.66250 137.65544 17999 ft 254 kts 217°
2026-05-07 11:20 -34.67731 137.64371 17974 ft 255 kts 201°
2026-05-07 11:20 -34.69461 137.64099 18022 ft 253 kts 181°
2026-05-07 11:20 -34.71208 137.64090 18001 ft 255 kts 181°
2026-05-07 11:21 -34.72953 137.64496 17978 ft 257 kts 154°
2026-05-07 11:21 -34.74287 137.65894 18006 ft 258 kts 126°
2026-05-07 11:21 -34.74902 137.67935 18002 ft 261 kts 96°
2026-05-07 11:21 -34.74629 137.70085 18003 ft 263 kts 67°
2026-05-07 11:22 -34.73546 137.71845 18014 ft 263 kts 43°
2026-05-07 11:22 -34.72163 137.73300 18005 ft 265 kts 38°
2026-05-07 11:22 -34.70688 137.74644 17996 ft 266 kts 32°
2026-05-07 11:22 -34.68968 137.75403 18010 ft 264 kts 13°
2026-05-07 11:23 -34.67160 137.75523 17984 ft 263 kts 346°
2026-05-07 11:23 -34.65484 137.74718 18029 ft 260 kts 334°
2026-05-07 11:23 -34.63828 137.73798 17998 ft 262 kts 334°
2026-05-07 11:23 -34.62402 137.72478 17983 ft 259 kts 305°
2026-05-07 11:24 -34.61715 137.70511 18006 ft 254 kts 276°
2026-05-07 11:24 -34.61916 137.68413 18003 ft 251 kts 247°
2026-05-07 11:24 -34.62943 137.66742 18005 ft 250 kts 218°
2026-05-07 11:24 -34.64322 137.65469 18014 ft 251 kts 217°
2026-05-07 11:25 -34.65742 137.64220 17983 ft 253 kts 207°
2026-05-07 11:25 -34.67448 137.63925 18001 ft 252 kts 169°
2026-05-07 11:25 -34.68957 137.64952 18006 ft 255 kts 133°
2026-05-07 11:25 -34.69682 137.66901 18015 ft 258 kts 99°
2026-05-07 11:26 -34.69685 137.69061 18019 ft 261 kts 85°
2026-05-07 11:26 -34.69416 137.71245 17999 ft 263 kts 78°
2026-05-07 11:26 -34.68833 137.73366 17999 ft 264 kts 66°
2026-05-07 11:26 -34.67913 137.75288 18001 ft 265 kts 54°
2026-05-07 11:27 -34.66726 137.77008 18001 ft 266 kts 46°
2026-05-07 11:27 -34.65374 137.78543 18000 ft 267 kts 40°
2026-05-07 11:27 -34.63916 137.79953 18000 ft 267 kts 37°
2026-05-07 11:27 -34.62432 137.81258 17999 ft 267 kts 35°
2026-05-07 11:28 -34.60885 137.82548 17999 ft 268 kts 34°
2026-05-07 11:28 -34.59352 137.83794 17999 ft 268 kts 33°
2026-05-07 11:28 -34.57826 137.85080 17997 ft 268 kts 37°
2026-05-07 11:28 -34.56388 137.86540 17999 ft 268 kts 42°
2026-05-07 11:29 -34.55046 137.88065 17999 ft 268 kts 43°
2026-05-07 11:29 -34.53685 137.89636 17999 ft 268 kts 44°
2026-05-07 11:29 -34.52352 137.91187 17999 ft 268 kts 44°
2026-05-07 11:29 -34.51003 137.92755 17999 ft 268 kts 44°
2026-05-07 11:30 -34.49668 137.94307 17999 ft 268 kts 44°
2026-05-07 11:30 -34.48316 137.95875 17999 ft 268 kts 44°
2026-05-07 11:30 -34.46975 137.97427 17999 ft 268 kts 44°
2026-05-07 11:30 -34.45743 137.99121 17988 ft 268 kts 57°
2026-05-07 11:31 -34.44970 138.01173 18000 ft 266 kts 75°
2026-05-07 11:31 -34.44734 138.03381 17997 ft 265 kts 92°
2026-05-07 11:31 -34.45044 138.05543 18000 ft 263 kts 110°
2026-05-07 11:31 -34.45874 138.07512 17999 ft 261 kts 127°
2026-05-07 11:32 -34.48678 138.10416 17509 ft 276 kts 144°
2026-05-07 11:32 -34.50230 138.11838 17131 ft 285 kts 144°
2026-05-07 11:32 -34.51825 138.13303 16798 ft 291 kts 144°
2026-05-07 11:33 -34.53447 138.14789 16501 ft 293 kts 144°
2026-05-07 11:33 -34.55076 138.16275 16226 ft 295 kts 144°
2026-05-07 11:33 -34.56704 138.17757 15957 ft 296 kts 144°
2026-05-07 11:33 -34.58349 138.19252 15686 ft 296 kts 144°
2026-05-07 11:34 -34.59988 138.20741 15415 ft 296 kts 144°
2026-05-07 11:34 -34.61646 138.22249 15141 ft 297 kts 144°
2026-05-07 11:34 -34.63256 138.23766 14871 ft 297 kts 144°
2026-05-07 11:34 -34.64904 138.25305 14596 ft 297 kts 145°
2026-05-07 11:35 -34.66564 138.26790 14323 ft 297 kts 145°
2026-05-07 11:35 -34.68212 138.28264 14052 ft 297 kts 145°
2026-05-07 11:35 -34.69873 138.29759 13779 ft 297 kts 145°
2026-05-07 11:35 -34.71529 138.31259 13426 ft 298 kts 145°
2026-05-07 11:36 -34.73168 138.32748 13025 ft 296 kts 144°
2026-05-07 11:36 -34.74820 138.34253 12622 ft 294 kts 144°
2026-05-07 11:36 -34.76446 138.35738 12224 ft 293 kts 144°
2026-05-07 11:36 -34.78050 138.37215 11827 ft 293 kts 143°
2026-05-07 11:37 -34.79291 138.39151 11384 ft 296 kts 115°
2026-05-07 11:37 -34.79708 138.41594 10996 ft 296 kts 94°
2026-05-07 11:37 -34.79759 138.44075 10614 ft 293 kts 92°
2026-05-07 11:37 -34.79747 138.46544 10211 ft 291 kts 91°
2026-05-07 11:38 -34.79726 138.48994 9811 ft 289 kts 91°
2026-05-07 11:38 -34.79709 138.51442 9409 ft 287 kts 91°
2026-05-07 11:38 -34.79699 138.53816 9010 ft 283 kts 91°
2026-05-07 11:38 -34.79592 138.56178 8581 ft 279 kts 79°
2026-05-07 11:39 -34.78751 138.58289 8178 ft 272 kts 59°
2026-05-07 11:39 -34.77767 138.60205 7778 ft 267 kts 58°
2026-05-07 11:39 -34.76772 138.62061 7378 ft 263 kts 58°
2026-05-07 11:39 -34.75780 138.63896 7077 ft 256 kts 58°
2026-05-07 11:40 -34.74813 138.65691 6785 ft 247 kts 57°
2026-05-07 11:40 -34.73943 138.67438 6479 ft 238 kts 68°
2026-05-07 11:40 -34.73731 138.69350 6174 ft 224 kts 99°
2026-05-07 11:40 -34.74263 138.71050 5886 ft 210 kts 127°
2026-05-07 11:41 -34.75250 138.72272 5612 ft 200 kts 141°
2026-05-07 11:41 -34.76295 138.73349 5324 ft 193 kts 143°
2026-05-07 11:41 -34.77335 138.74333 5036 ft 188 kts 152°
2026-05-07 11:41 -34.78546 138.74777 4783 ft 183 kts 179°
2026-05-07 11:42 -34.79753 138.74469 4514 ft 179 kts 213°
2026-05-07 11:42 -34.80676 138.73460 4277 ft 179 kts 224°
2026-05-07 11:42 -34.81538 138.72362 3993 ft 179 kts 226°
2026-05-07 11:42 -34.82362 138.71242 3722 ft 177 kts 228°
2026-05-07 11:43 -34.83162 138.70120 3466 ft 176 kts 228°
2026-05-07 11:43 -34.83949 138.68997 3199 ft 168 kts 229°
2026-05-07 11:43 -34.84680 138.67947 2951 ft 161 kts 229°
2026-05-07 11:43 -34.85399 138.66910 2724 ft 158 kts 229°
2026-05-07 11:44 -34.86104 138.65889 2512 ft 157 kts 229°
2026-05-07 11:44 -34.86799 138.64882 2300 ft 156 kts 229°
2026-05-07 11:44 -34.87478 138.63896 2166 ft 148 kts 229°
2026-05-07 11:44 -34.88123 138.62959 1921 ft 144 kts 229°
2026-05-07 11:45 -34.88763 138.62030 1701 ft 140 kts 229°
2026-05-07 11:45 -34.89385 138.61128 1499 ft 137 kts 229°
2026-05-07 11:45 -34.89981 138.60263 1304 ft 131 kts 229°
2026-05-07 11:45 -34.90539 138.59451 1182 ft 123 kts 229°
2026-05-07 11:46 -34.91074 138.58675 984 ft 117 kts 229°
2026-05-07 11:46 -34.91581 138.57938 826 ft 112 kts 229°
2026-05-07 11:46 -34.92071 138.57222 683 ft 109 kts 230°
2026-05-07 11:46 -34.92554 138.56516 520 ft 108 kts 228°
2026-05-07 11:47 -34.93038 138.55815 384 ft 106 kts 229°
2026-05-07 11:47 -34.93516 138.55119 252 ft 107 kts 229°
2026-05-07 11:47 -34.93988 138.54434 105 ft 105 kts 229°
2026-05-07 11:47 -34.94437 138.53780 32 ft 89 kts 229°
2026-05-07 11:48 -34.94760 138.53313 30 ft 51 kts 230°
2026-05-07 11:48 -34.94924 138.53073 28 ft 16 kts 230°
2026-05-07 11:48 -34.94921 138.52989 28 ft 9 kts 334°
2026-05-07 11:48 -34.94851 138.53003 28 ft 11 kts 20°
2026-05-07 11:49 -34.94772 138.53038 28 ft 13 kts 19°
2026-05-07 11:49 -34.94683 138.53079 28 ft 14 kts 20°
2026-05-07 11:49 -34.94588 138.53122 29 ft 14 kts 19°
2026-05-07 11:49 -34.94519 138.53151 31 ft 10 kts 13°
2026-05-07 11:50 -34.94458 138.53117 30 ft 11 kts 302°
2026-05-07 11:50 -34.94448 138.53020 28 ft 12 kts 249°
2026-05-07 11:50 -34.94501 138.52949 28 ft 10 kts 218°
2026-05-07 11:50 -34.94558 138.52898 28 ft 9 kts 217°
2026-05-07 11:51 -34.94613 138.52846 28 ft 9 kts 218°
2026-05-07 11:51 -34.94665 138.52795 28 ft 9 kts 217°
2026-05-07 11:51 -34.94724 138.52740 28 ft 12 kts 217°
2026-05-07 11:51 -34.94806 138.52664 28 ft 15 kts 218°
2026-05-07 11:52 -34.94886 138.52588 28 ft 14 kts 217°
2026-05-07 11:52 -34.94957 138.52521 28 ft 11 kts 217°
2026-05-07 11:52 -34.95020 138.52461 28 ft 11 kts 218°
2026-05-07 11:52 -34.95080 138.52405 28 ft 10 kts 216°
2026-05-07 11:53 -34.95124 138.52364 28 ft 6 kts 222°
2026-05-07 11:53 -34.95113 138.52312 28 ft 7 kts 307°
2026-05-07 11:53 -34.95078 138.52257 28 ft 8 kts 308°
2026-05-07 11:53 -34.95045 138.52219 28 ft 6 kts 322°
2026-05-07 11:54 -34.95027 138.52187 28 ft 5 kts 245°
2026-05-07 11:54 -34.95035 138.52174 28 ft 0 kts 228°